DECAYED
Showing default

SOYUZ MS-26, 61043 (Decayed)

Orbit data source: Space-Track

SOYUZ MS-26, 61043 was a payload satellite owned by RKKE (CIS) in LEO that was launched on Wed, 11 Sep 2024 UTC via a SOYUZ-2-1A launch vehicle from the Tyuratam Missile And Space Complex (TTMTR). Payload-class satellites include a variety of spacecraft equipped with specific instruments for various scientific and technological missions. These include communications satellites like Starlink; space stations such as the ISS; scientific satellites like the Hubble; Earth observation satellites from companies like Planet Labs, Umbra, and HawkEye 360; GPS; miniature CubeSats for education and research; and military/defense satellites.

Loading next visibility...
Identifier
61043, 2024-162A
Orbit
Decayed
Last TLE update
2 months ago
Origin
Manufacturer
RKKE
Mission
Decayed Civil Spaceship
Bus & Motor
7K-S A48, SA
Mass
7,152 kg wet, 2,900 kg dry
Launch date (UTC)
2024-09-11 (10 months ago)
Launch vehicle
SOYUZ-2-1A
Launch site
Tyuratam Missile And Space Complex (TTMTR)
Object type
Payload
Rocket body
Debris
Shape & HBR
Cyl + Cone + Sphere + 2 Pan, 10.6 m
Radar Cross Section
25.344 m², Large (>1 m²)

Expand to show TLE details & history

TLE from 2 months ago
0 SOYUZ MS-26
1 61043U 24162A   25122.80241190  .00013988  00000-0  25885-3 0  9996
2 61043  51.6344 171.8584 0002186  73.9391 286.1838 15.49304274505759
Epoch: 2025-05-02T19:15Z
TLE epoch observation values (Epoch: 2025-05-02T19:15:28.388Z)
Latitude
-0.00002°
Longitude
22.03631°
Altitude
419.087 km
Speed
7.661 km/s
True Right ascension
11h 27m 26s
True Declination
0° 00' 00"
Sunlit
Object was in full shadow at epoch
Visualization orbit readout
Visualization observer readout
Orbital elements
Apogee altitude
420.755 km
Perigee altitude
417.783 km
Semi-major axis
6,797.406 km
Eccentricity
0.00022
Inclination
51.6344°
RAAN
171.8584°
Arg. of periapsis
73.9391°
True anomaly
Unknown
Mean anomaly
286.1838°
Eccentric anomaly
Unknown
Mean motion
3.87283 °/min
Orbital period
92.96 mins
BSTAR
0.00025885
Loading maneuver chart data...
Loading SW <> Apogee altitude chart data...
Loading historical data...
Loading historical data...
Loading historical data...
Loading historical data...
Loading historical data...
Loading historical data...
Loading historical data...
Other satellites on launch #162 in the year 2024 (2024-09-11 UTC)

SOYUZ MS-26 Visibility forecast

Observer location: undefined°, undefined°

Span
Click to sort rows by Start time (UTC) header in descending order
Start Az.
Max El. time (UTC)
Max El. Az.
Max El.
End time (UTC)
End Az.
5 mins2025-07-01 07:31:29.262Z260.396° W2025-07-01 07:34:29.262Z342.165° N31.77°2025-07-01 07:36:29.262Z33.467° NE
4 mins2025-07-01 12:25:29.262Z343.14° N2025-07-01 12:26:29.262Z11.927° NNE26.969°2025-07-01 12:29:29.262Z90.632° ESE
4 mins2025-07-02 06:43:29.262Z250.962° W2025-07-02 06:44:29.262Z287.446° WNW41.516°2025-07-02 06:47:29.262Z46.771° ENE
|